Regional Weather Roundup
Issued by NWS

Home | Current Version | Previous Version | Graphics & Text | Print | Product List | Glossary On
Versions: 1 2 3 4 5 6 7 8 9 10 11 12 13 14 15 16 17 18 19 20 21 22 23 24 25 26 27 28 29 30 31 32 33 34 35 36 37 38 39 40 41 42 43 44 45 46 47 48 49 50
000
ASUS45 KCYS 250810
RWRWY

WYOMING REGIONAL WEATHER ROUNDUP
NATIONAL WEATHER SERVICE CHEYENNE WY
200 AM MDT SAT APR 25 2015

NOTE:  "FAIR" INDICATES FEW OR NO CLOUDS BELOW 12,000 FEET
WITH NO SIGNIFICANT WEATHER AND/OR OBSTRUCTIONS TO VISIBILITY.

WYZ001-250900-
YELLOWSTONE NATIONAL PARK

CITY           SKY/WX    TMP DP  RH WIND       PRES   REMARKS
LK YELLOWSTONE   N/A     33  31  92 SW3       29.72S
W YELLOWSTONE  NOT AVBL

$$
WYZ002>013-054>058-071-098>099-250900-
NORTHERN WYOMING

CITY           SKY/WX    TMP DP  RH WIND       PRES   REMARKS
JACKSON        CLOUDY    37  37 100 CALM      29.71S
CODY           MOCLDY    45  39  81 NE9       29.62R
GREYBULL       CLOUDY    52  39  61 NW10      29.56F
WORLAND        FAIR      47  38  71 S6        29.56S
SHERIDAN       FAIR      46  37  71 SW7       29.55F
BUFFALO        FAIR      49  38  65 SW20      29.60F
GILLETTE       FAIR      45  39  79 S6        29.62F
HULETT         FAIR      45  32  61 S8        29.66S
NEWCASTLE      FAIR      37  37 100 NE5       29.68S WCI  34

$$
WYZ014>020-022>026-101>103-250900-
CENTRAL WYOMING

CITY           SKY/WX    TMP DP  RH WIND       PRES   REMARKS
BIG PINEY      LGT RAIN  36  34  92 NW7       29.73S FOG     WCI  30
PINEDALE       LGT RAIN  37  36  93 S12       29.73S WCI  30
DUBOIS         CLOUDY    36  32  87 NW12      29.67S WCI  27
LANDER         FAIR      47  33  58 NW5       29.62R
RIVERTON       MOCLDY    47  33  58 SW3       29.63F
CASPER         MOCLDY    44  34  67 S8        29.67F
DOUGLAS        CLOUDY    41  38  89 CALM      29.69R

$$
WYZ021-027>030-104>119-250900-
SOUTHERN WYOMING

CITY           SKY/WX    TMP DP  RH WIND       PRES   REMARKS
EVANSTON       CLOUDY    34  32  92 SW15      29.80S FOG     WCI  24
KEMMERER       LGT SNOW  32  32 100 SW8       29.77S VSB 3/4 WCI  25
FORT BRIDGER   PTSUNNY   37  37 100 W20G26    29.80S WCI  27
ROCK SPRINGS   CLOUDY    39  33  79 S6        29.74S WCI  35
DIXON          CLOUDY    39  34  81 NE6       29.79S
RAWLINS        FAIR      32  28  85 CALM      29.75F
SARATOGA       FAIR      32  32 100 MISG      29.78F
LARAMIE        FAIR      33  29  85 W7        29.76S WCI  27
CHEYENNE       FAIR      42  31  64 NW5       29.72R
TORRINGTON     FAIR      43  39  86 N9        29.65S
PINE BLUFFS    FAIR      41  34  75 W6        29.70R

$$


USA.gov is the U.S. government's official web portal to all federal, state and local government web resources and services.